OBJECT F, 60750

Orbit data source: Space-Track

You're viewing an Uncataloged Satellite

Recently launched and/or uncataloged satellites may have evolving metadata. Metadata may include but not limited to: Owner, Maufacturer, Bus, Motor, and Mission.

OBJECT F, 60750 is a Chinese satellite in SSO that was launched on Thu, 29 Aug 2024 UTC via a GUSHENXING 1 launch vehicle from the Yellow Sea Launch Area, China (YSLA). Unknown objects in Earth's orbit typically refer to objects detected orbiting the Earth but have not yet been identified or cataloged. These objects could be anything from previously untracked satellites, spent rocket stages, debris from satellite collisions, or even natural meteoroids temporarily captured by Earth's gravity.

Loading next visibility...
Identifier
60750, 2024-153F
Orbit
SSO
Country
Flag of CNCN / PRC
Related business
None
Manufacturer
Unknown
Mission
Operational Commercial Imaging
Bus & Motor
Unknown
Mass
Unknown
Launch date (UTC)
2024-08-29 (1 year ago)
Launch vehicle
GUSHENXING 1
Launch site
Yellow Sea Launch Area, China (YSLA)
Object type
Unknown
Shape & HBR
Box + 1 Pan, 2.5 m
Radar Cross Section
5.339 m², Medium (>0.1 m² and < 1m²)

Expand to show TLE details & history
Last TLE update: 7 hours ago

TLE from 7 hours ago
0 OBJECT F
1 60750U 24153F   26037.35311907  .00030993  00000-0  13605-2 0  9991
2 60750  97.6522 171.0804 0005545 353.6326   6.4838 15.21873114 79872
Epoch: 2026-02-06T08:28Z
TLE epoch observation values (Epoch: 2026-02-06T08:28:29.487Z)
Latitude
-0.00004°
Longitude
-92.53467°
Altitude
499.486 km
Speed
7.617 km/s
True Right ascension
11h 24m 19s
True Declination
0° 00' 00"
Sunlit
Object was in full shadow at epoch
Visualization orbit readout
Latitude
Unknown
Longitude
Unknown
Altitude
Unknown
Speed
Unknown
Apparent Right ascension
Unknown
Apparent Declination
Unknown
Sunlit
N/A
Visualization observer readout
Local Sidereal Time
17:22:57
Azimuth
Unknown
Elevation
Unknown
Doppler factor
Unknown
Orbital elements
Apogee altitude
500.977 km
Perigee altitude
493.353 km
Semi-major axis
6,875.302 km
Eccentricity
0.00055
Inclination
97.6522°
RAAN
171.0804°
Arg. of periapsis
353.6326°
True anomaly
6.49098°
Mean anomaly
6.4838°
Eccentric anomaly
6.48739°
Mean motion
3.8072 °/min
Orbital period
94.56 mins
BSTAR
0.0013605
Loading maneuver chart data...
Computing Atmospheric mass density...
Loading historical data...
Loading historical data...
Loading historical data...
Loading historical data...
Loading historical data...
Loading historical data...
Loading historical data...

Documentation

Showing up to 5 results
|